Regional Weather Roundup
Issued by NWS

Home | Current Version | Previous Version | Text Only | Print | Product List | Glossary On
Versions: 1 2 3 4 5 6 7 8 9 10 11 12 13 14 15 16 17 18 19 20 21 22 23 24 25 26 27 28 29 30 31 32 33 34 35 36 37 38 39 40 41 42 43 44 45 46 47 48 49 50
000
ASUS46 KLOX 302313
RWRCA

SOUTHERN CALIFORNIA WEATHER ROUNDUP
NATIONAL WEATHER SERVICE OXNARD CALIFORNIA
400 PM PDT MON MAY 30 2016

NOTE: "FAIR" INDICATES FEW OR NO CLOUDS BELOW 12,000 FEET WITH NO
SIGNIFICANT WEATHER AND/OR OBSTRUCTIONS TO VISIBILITY.

  -  STATIONS PRECEEDED BY AN ASTERISK (*) ARE NOT NWS OR FAA
     STATIONS AND ARE NOT SUBJECT TO NWS AND FAA QUALITY CONTROL.

CAZ041-042-087-310000-
LA AND ORANGE COUNTY COASTAL AREAS


CITY           SKY/WX    TMP DP  RH WIND       PRES   REMARKS
L.A. DOWNTOWN  SUNNY     70  56  61 VRB5      29.92F
L.A. AIRPORT   MOSUNNY   66  56  70 W14       29.94F
LONG BEACH     SUNNY     71  55  56 S8        29.92F

CITY           SKY/WX    TMP DP  RH WIND       PRES   REMARKS
AVALON           N/A     64 N/A N/A MISG        N/A
FULLERTON      SUNNY     75  54  47 SW8       29.91F
*GETTY CENTER    N/A     68  54  60 SW13        N/A
HAWTHORNE      MOSUNNY   68  56  65 W9        29.94F
*LEO CARRILLO    N/A     65  57  75 W9          N/A
*LOS ALAMITOS  FAIR      72  56  57 SW13      29.92F
*REDONDO BEACH   N/A     66  57  71 SW3       29.93F
SANTA ANA      MOSUNNY   70  54  56 SW9G16    29.93F
STA MONICA APT MOSUNNY   65  55  70 W10G18    29.94F
*STA MON PIER    N/A     60  57  90 NW15      29.87F
TORRANCE       MOSUNNY   68  59  73 W12       29.95F
*UCLA            N/A     64  54  68 SW14      29.90F

$$

CAZ547-548-048-310000-
LA COUNTY VALLEYS AND INLAND EMPIRE


CITY           SKY/WX    TMP DP  RH WIND       PRES   REMARKS
BURBANK        SUNNY     72  55  55 S9        29.91F
VAN NUYS       SUNNY     76  54  46 SE9       29.90F

CITY           SKY/WX    TMP DP  RH WIND       PRES   REMARKS
CORONA AIRPORT CLEAR     77  56  48 W10       29.91F
*CHATSWORTH      N/A     77  57  48 E6        29.90F
CHINO          MOSUNNY   81  53  37 SW12      29.91F
*CLAREMONT       N/A     75  53  46 S7          N/A
MARCH AFB      SUNNY     78  54  43 N10       29.91F
*NORTHRIDGE      N/A     75  52  43 SE6G12      N/A
ONTARIO        MOSUNNY   79  52  38 W9        29.91F
*PASADENA        N/A     77  59  53 NE6         N/A
POMONA         SUNNY     75  54  46 W9        29.94F
RIVERSIDE      SUNNY     79  53  40 W13G18    29.90F
SAN BERNARDINO MOSUNNY   82  50  32 SW9       29.91F HAZE
*SAN RAFAEL HI   N/A     77  53  43 N7G18       N/A
*SAUGUS          N/A     78  50  36 S9          N/A
*WHITEMAN AP   SUNNY     73  54  49 S9        29.94F
*WHITTIER HILL   N/A     73  54  50 SW7         N/A
*WOODLAND HILL   N/A     77  54  44 SE5         N/A

$$

CAZ054-055-310000-
LA AND SAN BERNARDINO COUNTY MOUNTAINS


CITY           SKY/WX    TMP DP  RH WIND       PRES   REMARKS
*ACTON           N/A     84  49  29 SW12        N/A
*BIG BEAR AIRP MOCLDY    68  21  17 E12G20    30.16F
*BIG PINES       N/A     74  25  16 S2          N/A
*CHILAO          N/A     81  43  26 SW5         N/A
SANDBERG       LGT RAIN  82  32  16 N22G31    30.08F
*WARM SPRINGS    N/A     86  64  47 CALM        N/A

$$

CAZ028-029-059-060-099-310000-
ANTELOPE VALLEY AND SURROUNDING AREAS


CITY           SKY/WX    TMP DP  RH WIND       PRES   REMARKS
LANCASTER      SUNNY     94  33  11 W23G32    29.89F
PALMDALE       SUNNY     92  26   9 VRB5      29.90F
*POPPY PARK      N/A     90  36  15 W16G31      N/A

CITY           SKY/WX    TMP DP  RH WIND       PRES   REMARKS
29 PALMS       MOSUNNY   91  19   7 VRB3      29.91F
BARSTOW/DAGGET SUNNY     95  24   8 VRB7      29.84F
BISHOP         MOSUNNY   91  25   9 VRB3      29.97F
CHINA LAKE     SUNNY     95  29   9 VRB3      29.84F
EDWARDS AFB    MOSUNNY   93  24   8 VRB2      29.85F
MOJAVE         SUNNY     91  41  17 W23G29    29.92F
NEEDLES        MOSUNNY   98  22   6 VRB3      29.76F HX  91
VICTORVILLE    MOSUNNY   91  25   9 NW10      29.91F

$$

CAZ039-040-310000-
VENTURA AND SANTA BARBARA COUNTY COAST


CITY           SKY/WX    TMP DP  RH WIND       PRES   REMARKS
CAMARILLO      CLOUDY    68  54  60 SW13      29.94F
NWS OXNARD       N/A     69  55  60 W5        29.94F
OXNARD AIRPORT MOSUNNY   67  55  65 W9        29.95F
*POINT MUGU    CLOUDY    66  56  70 W12       29.96F
SBA APT/GOLETA PTSUNNY   64  54  69 W10       29.96F
*VENTURA         N/A     66  56  71 SW12      29.92F

$$

CAZ044-045-310000-
VENTURA COUNTY VALLEYS


CITY           SKY/WX    TMP DP  RH WIND       PRES   REMARKS
*SIMI VALLEY     N/A     72  58  60 W2        29.88F
*WESTLAKE VILL   N/A     71  57  61 S1        29.91F
*OJAI            N/A     75  57  53 SW1       29.83F
*FILLMORE        N/A     74  58  56 W5        29.81F

$$

CAZ053-310000-
VENTURA COUNTY MOUNTAINS


CITY           SKY/WX    TMP DP  RH WIND       PRES   REMARKS
*ROSE VALLEY     N/A     86  52  30 MISG        N/A

$$

CAZ034-035-036-310000-
CENTRAL COAST AND SANTA YNEZ VALLEY


CITY           SKY/WX    TMP DP  RH WIND       PRES   REMARKS
SAN LUIS OBISP SUNNY     70  53  54 NW15      29.96F
SANTA MARIA    MOSUNNY   65  53  65 NW14      29.98F

CITY           SKY/WX    TMP DP  RH WIND       PRES   REMARKS
*CAL POLY SLO    N/A     70  57  64 W6          N/A
*LOMPOC        SUNNY     64  53  67 W17       29.98F
*PISMO BEACH     N/A     57  54  88 SW7       29.99F
*SANTA YNEZ    FAIR      79  48  34 W16       29.94F

$$

CAZ037-038-051-310000-
SAN LUIS OBISPO COUNTY INTERIOR AND CUYAMA VALLEY


CITY           SKY/WX    TMP DP  RH WIND       PRES   REMARKS
*CUYAMA          N/A     86  42  21 NE13      29.83F
PASO ROBLES    SUNNY     89  47  23 SW17      29.89F

$$

CAZ032-033-061-310000-
SOUTHERN DESERTS


CITY           SKY/WX    TMP DP  RH WIND       PRES   REMARKS
BLYTHE         SUNNY     96  34  11 VRB7      29.76F HX  91
IMPERIAL       SUNNY     96  34  11 VRB3      29.75F HX  91
PALM SPRINGS   MOSUNNY   98  39  13 SE6       29.77F HX  93
THERMAL        SUNNY     97  32  10 S8        29.72F HX  91

$$

ELSEWHERE ACROSS THE WESTERN UNITED STATES AND MEXICO


CITY           SKY/WX    TMP DP  RH WIND       PRES   REMARKS
DEATH VALLEY,    N/A    108  31   7 NW2         N/A  HX 100
DENVER, CO     TSTM      60  45  57 E12       30.00R
GRAND CANYON,  PTSUNNY   71  25  17 N12G20    30.11S
HONOLULU, HI   PTSUNNY   82  64  54 NE9G17    30.02F
KAHULUI, MAUI  MOSUNNY   84  66  54 N14       30.03F
LAKE TAHOE, CA SUNNY     73  29  19 NE10      30.19F
LAS VEGAS, NV  PTSUNNY   96  27   8 VRB6      29.79F HX  90
MAMMOTH LAKES, FAIR      76  22  13 N16G22    30.22F
MEXICO CITY, M CLOUDY    68  46  45 E7        30.27
PHOENIX, AZ    MOSUNNY   91  18   7 VRB3      29.78F
PORTLAND, OR   PTSUNNY   76  44  32 NW13      30.15F
RENO, NV       MOSUNNY   85  31  14 VRB5      30.07F
SALT LAKE CITY PTSUNNY   78  35  21 NW12G21   30.05S
SAN DIEGO, CA  MOSUNNY   70  56  61 W12       29.95F
SAN FRANCISCO, MOSUNNY   69  51  52 NW18      29.93F
SAN JOSE, CA   MOSUNNY   82  57  42 NW10      29.92F
SEATTLE, WA    PTSUNNY   72  42  34 N10       30.24F
TIJUANA, MEX   PTSUNNY   68  54  60 W12       29.96F

$$

STATION/POSITION TIME  TEMP    WIND        PRES    VSBY  WAVE
                       AIR SEA DIR/SP/G                  HT/PER
                 (UTC) (F)     (DEG/KT/KT) (MB)    (MI)  (FT/S)
POINT ARGUELLO B NOT AVBL
WEST SANTA BARBA 2250   57 57  300/ 16/ 17 1014.9F         4/17
POINT CONCEPTION NOT AVBL
EAST SANTA BARBA 2200   59 59  280/  6/  8 1015.5F
SANTA MONICA BAY 2250   60 64  280/ 10/ 12 1014.6F         3/17



USA.gov is the U.S. government's official web portal to all federal, state and local government web resources and services.